CSN3917 ZGGG-ZSWX

Flight info

Callsign CSN3917
Flight time N/A
Altitude 35100
Route LMN9 LMN G471 EGEDA/K0872S1040 G471 PLT/K0865S1070 W19 RUNEK/K0859S1100 W19 PULES/K0863S1070 W19 NCH/K0859S1100 W105 XSH/K0859S1070 W50 HFE R343 ESBAG ESB81A
Aircraft A320/M-SDE2E3FGILRWXY/LB2

Departure

Time 2026-05-06 14:45
Airport Guangzhou Baiyun International Airport (ZGGG)

Arrival

Time N/A
Airport Sunan Shuofang International Airport (ZSWX)
Time Latitude Longitude Altitude Speed Heading
2026-05-06 14:17 23.39771 113.30586 53 ft 0 kts 259°
2026-05-06 14:29 23.39774 113.30603 53 ft 4 kts 259°
2026-05-06 14:29 23.39779 113.30632 54 ft 4 kts 259°
2026-05-06 14:30 23.39784 113.30661 52 ft 4 kts 259°
2026-05-06 14:30 23.39790 113.30690 53 ft 4 kts 259°
2026-05-06 14:30 23.39796 113.30717 57 ft 4 kts 240°
2026-05-06 14:30 23.39813 113.30737 56 ft 4 kts 202°
2026-05-06 14:31 23.39825 113.30741 55 ft 0 kts 194°
2026-05-06 14:35 23.39813 113.30738 56 ft 4 kts 194°
2026-05-06 14:35 23.39790 113.30731 58 ft 3 kts 194°
2026-05-06 14:36 23.39775 113.30727 55 ft 2 kts 194°
2026-05-06 14:36 23.39766 113.30725 57 ft 1 kts 194°
2026-05-06 14:36 23.39762 113.30727 52 ft 1 kts 159°
2026-05-06 14:36 23.39748 113.30761 56 ft 7 kts 104°
2026-05-06 14:37 23.39738 113.30808 55 ft 9 kts 104°
2026-05-06 14:37 23.39712 113.30892 51 ft 10 kts 131°
2026-05-06 14:37 23.39654 113.30896 57 ft 8 kts 194°
2026-05-06 14:37 23.39606 113.30882 54 ft 6 kts 194°
2026-05-06 14:38 23.39553 113.30868 52 ft 13 kts 194°
2026-05-06 14:38 23.39463 113.30844 56 ft 12 kts 194°
2026-05-06 14:38 23.39386 113.30823 55 ft 11 kts 194°
2026-05-06 14:38 23.39316 113.30804 52 ft 11 kts 194°
2026-05-06 14:39 23.39247 113.30786 56 ft 10 kts 194°
2026-05-06 14:39 23.39136 113.30756 51 ft 21 kts 194°
2026-05-06 14:39 23.38988 113.30716 57 ft 22 kts 194°
2026-05-06 14:39 23.38834 113.30674 56 ft 23 kts 194°
2026-05-06 14:40 23.38675 113.30631 52 ft 24 kts 194°
2026-05-06 14:40 23.38507 113.30585 55 ft 25 kts 194°
2026-05-06 14:40 23.38333 113.30538 57 ft 26 kts 194°
2026-05-06 14:40 23.38154 113.30490 57 ft 27 kts 194°
2026-05-06 14:41 23.37969 113.30440 52 ft 28 kts 194°
2026-05-06 14:41 23.37783 113.30390 52 ft 23 kts 194°
2026-05-06 14:41 23.37676 113.30361 54 ft 13 kts 194°
2026-05-06 14:41 23.37621 113.30372 55 ft 7 kts 123°
2026-05-06 14:42 23.37611 113.30406 52 ft 0 kts 103°
2026-05-06 14:42 23.37608 113.30416 52 ft 4 kts 103°
2026-05-06 14:43 23.37603 113.30444 56 ft 6 kts 103°
2026-05-06 14:43 23.37591 113.30521 56 ft 9 kts 78°
2026-05-06 14:43 23.37631 113.30551 52 ft 6 kts 14°
2026-05-06 14:43 23.37714 113.30573 55 ft 34 kts 14°
2026-05-06 14:44 23.38187 113.30702 53 ft 102 kts 13°
2026-05-06 14:44 23.39054 113.30933 59 ft 153 kts 14°
2026-05-06 14:44 23.40159 113.31239 399 ft 168 kts 15°
2026-05-06 14:45 23.42483 113.31875 1491 ft 183 kts 16°
2026-05-06 14:45 23.43786 113.32265 1760 ft 205 kts 17°
2026-05-06 14:45 23.45234 113.32707 2003 ft 227 kts 17°
2026-05-06 14:45 23.46725 113.33430 2286 ft 247 kts 41°
2026-05-06 14:46 23.47759 113.34968 2675 ft 261 kts 75°
2026-05-06 14:46 23.48136 113.36920 3380 ft 267 kts 82°
2026-05-06 14:46 23.48480 113.38928 4186 ft 272 kts 81°
2026-05-06 14:46 23.48840 113.40947 4971 ft 278 kts 81°
2026-05-06 14:47 23.49213 113.43031 5712 ft 284 kts 80°
2026-05-06 14:47 23.49594 113.45160 6464 ft 289 kts 79°
2026-05-06 14:47 23.49982 113.47325 7166 ft 293 kts 79°
2026-05-06 14:47 23.50375 113.49521 7879 ft 298 kts 79°
2026-05-06 14:48 23.50772 113.51755 8585 ft 302 kts 79°
2026-05-06 14:48 23.51173 113.54019 9276 ft 307 kts 79°
2026-05-06 14:48 23.51580 113.56318 9955 ft 311 kts 79°
2026-05-06 14:48 23.51998 113.58691 10272 ft 329 kts 79°
2026-05-06 14:49 23.52437 113.61193 10404 ft 352 kts 79°
2026-05-06 14:49 23.52909 113.63890 10522 ft 373 kts 79°
2026-05-06 14:49 23.53410 113.66739 10668 ft 391 kts 79°
2026-05-06 14:49 23.53928 113.69688 11099 ft 400 kts 79°
2026-05-06 14:50 23.54451 113.72680 11641 ft 404 kts 79°
2026-05-06 14:50 23.54977 113.75697 12178 ft 407 kts 79°
2026-05-06 14:50 23.55508 113.78745 12705 ft 411 kts 79°
2026-05-06 14:50 23.56043 113.81818 13241 ft 415 kts 79°
2026-05-06 14:51 23.56585 113.84916 13759 ft 418 kts 79°
2026-05-06 14:51 23.57125 113.87999 13785 ft 419 kts 79°
2026-05-06 14:51 23.57668 113.91121 13787 ft 419 kts 80°